Preview of NWS' New Version of Forecast
This preview is not operational and should not be used for support decisions.

Regional Weather Roundup (RWR)

Issued by National Weather Service (NWS)

                            
000
ASPQ40 PGUM 182310
RWRPQ 
WEATHER ROUNDUP FOR THE MARIANAS AND MICRONESIA
NATIONAL WEATHER SERVICE TIYAN GU
900 AM CHST MON AUG 19 2019

GUZ001>004-190000-
MARIANA ISLANDS-
  
CITY           SKY/WX    TMP DP  RH WIND       PRES   REMARKS
GUAM AIRPORT   MOSUNNY   81  75  83 S6        29.81R                  
ANDERSEN AFB   PTSUNNY   82  77  83 S8        29.81R HX  91           
ROTA AIRPORT   PTSUNNY  N/A N/A N/A SE12      29.77R                  
TINIAN AP      MOSUNNY   86  79  79 SE9       29.77S HX  99           
SAIPAN AP      MOSUNNY   84  79  84 SE12G21   29.79S HX  96           

$$

PMZ161-190000-
REPUBLIC OF PALAU-
  
CITY           SKY/WX    TMP DP  RH WIND       PRES   REMARKS
KOROR AP       LGT RAIN  79  73  83 SW15G22   29.81R                  
KOROR WSO      NOT AVBL                                               

$$

PMZ171>174-190000-
FEDERATED STATES OF MICRONESIA-
  
CITY           SKY/WX    TMP DP  RH WIND       PRES   REMARKS
YAP AIRPORT    CLOUDY    82  77  83 VRB5      29.79R HX  91           
CHUUK AP       CLOUDY    84  79  84 VRB3      29.84R HX  96           
POHNPEI AP     CLOUDY    84  79  84 W8        29.83R HX  96           
POHNPEI WSO    PTSUNNY   86  79  79 W7        29.85F HX  99           
KOSRAE AP      CLOUDY    88  77  70 W10       29.82S HX 100           

$$

PMZ181-190000-
REPUBLIC OF THE MARSHALL ISLANDS-
  
CITY           SKY/WX    TMP DP  RH WIND       PRES   REMARKS
KWAJALEIN AP   RAIN      82  77  83 E9        29.85R HX  91           
MAJURO AP      NOT AVBL                                               
MAJURO WSO     PTSUNNY   82  77  83 W9        29.82S HX  91           

$$